Location: Norton
(51.3000°N, 0.8167°E)
Time: 01:17:46
(UTC+00:00)

Meteor 1-14 Rocket - Pass Details

Date: 03 March 2021
Orbit: 834 x 918 km, 81.3° (Epoch: 13 April)

Event Time Altitude Azimuth Distance (km) Brightness Sun altitude
Rises 19:22:19 0° 195° (SSW) 3,394 7.4 -16.6°
Reaches altitude 10° 19:24:44 10° 197° (SSW) 2,456 6.7 -16.9°
Maximum altitude 19:30:18 77° 284° (WNW) 864 4.3 -17.8°
Drops below altitude 10° 19:35:52 10° 10° (N) 2,459 6.6 -18.6°
Sets 19:38:17 0° 12° (NNE) 3,400 7.4 -19.0°
